Regional Weather Roundup
Issued by NWS

Home | Current Version | Previous Version | Text Only | Print | Product List | Glossary On
Versions: 1 2 3 4 5 6 7 8 9 10 11 12 13 14 15 16 17 18 19 20 21 22 23 24 25 26 27 28 29 30 31 32 33 34 35 36 37 38 39 40 41 42 43 44 45 46 47 48 49 50
000
ASUS44 KLIX 171913
RWRLA
LOUISIANA WEATHER ROUNDUP
NATIONAL WEATHER SERVICE NEW ORLEANS LA
100 PM CST TUE JAN 17 2017

NOTE: "FAIR" INDICATES FEW OR NO CLOUDS BELOW 12,000 FEET WITH NO
      SIGNIFICANT WEATHER AND/OR OBSTRUCTIONS TO VISIBILITY.
      SKY/WX - SKY CONDITION AND SIGNIFICANT WEATHER.
      TMP - AIR TEMPERATURE.    DP   - DEWPOINT TEMPERATURE.
      RH  - RELATIVE HUMIDITY.  PRES - PRESSURE.
      HX  - HEAT INDEX.         WCI  - WIND CHILL INDEX.

*  THESE STATIONS ARE NOT NWS OR FAA STATIONS AND ARE NOT UNDER
   NWS QUALITY CONTROL.

LAZ040-048-061>063-065-066-069-172000-
SOUTHEAST LOUISIANA

CITY           SKY/WX    TMP DP  RH WIND       PRES   REMARKS
N.O. AUDUBON   NOT AVBL
N.O. INTL ARPT CLOUDY    79  65  62 S13       30.12F
N.O. LAKEFRONT PTSUNNY   67  63  87 N9        30.13F
N.O. DOWNTOWN*   N/A     78  65  63 S12       30.13F
RESERVE*       MOCLDY    82  65  56 S13       30.11F
SLIDELL        CLOUDY    77  67  71 SW6       30.12F
BATON ROUGE    MOSUNNY   80  65  59 S14       30.10F
BOOTHVILLE     PTSUNNY   73  69  87 S9        30.13F
BELLE CHASSE   CLOUDY    76  67  73 S12       30.12F
BOGALUSA*      MOCLDY    81  61  51 SW8G17    30.14F
GALLIANO*      MOCLDY    78  64  62 S16G23    30.12F
NEW ROADS*     FAIR      77  65  65 S8        30.10F
GONZALES*      MOCLDY    79  66  66 SW9       30.10F
HAMMOND*       PTSUNNY   81  63  54 S9        30.12F
HOUMA*         PTSUNNY   77  68  73 S16       30.12F
PORT FOURCHON* CLEAR     73  68  83 S12       30.11F

$$

LAZ041-044-053-054-172000-
SOUTHWEST LOUISIANA

CITY           SKY/WX    TMP DP  RH WIND       PRES   REMARKS
LAKE CHARLES   PTSUNNY   76  67  73 S13G20    30.09F
LAFAYETTE      PTSUNNY   77  67  71 S15G21    30.10F
PATTERSON      PTSUNNY   77  67  71 SW12      30.12F
SALT POINT     NOT AVBL
NEW IBERIA     MOSUNNY   79  66  64 S18G28    30.10F
CHENAULT AIRPK NOT AVBL

$$

LAZ027-028-172000-
CENTRAL LOUISIANA

CITY           SKY/WX    TMP DP  RH WIND       PRES   REMARKS
FORT POLK      CLOUDY    59  59 100 VRB7      30.10F
ALEXANDRIA INT CLOUDY    61  59  93 N7        30.10F
ALEXANDRIA     CLOUDY    66  61  84 NW7       30.11F

$$

LAZ001-002-172000-
NORTHWEST LOUISIANA

CITY           SKY/WX    TMP DP  RH WIND       PRES   REMARKS
SHREVEPORT     CLOUDY    54  50  86 SW6       30.17R THUNDER
BARKSDALE AFB  CLOUDY    52  48  87 N3        30.16S
DTN SHREVEPORT CLOUDY    54  49  83 SE3       30.15F

$$

LAZ014-016-172000-
NORTHEAST LOUISIANA

CITY           SKY/WX    TMP DP  RH WIND       PRES   REMARKS
MONROE         LGT RAIN  55  53  93 NW7       30.15F FOG
TALLULAH       CLOUDY    63  57  81 N8        30.12F

$$




USA.gov is the U.S. government's official web portal to all federal, state and local government web resources and services.